Regional Weather Roundup
Issued by NWS

Home | Current Version | Previous Version | Graphics & Text | Print | Product List | Glossary On
Versions: 1 2 3 4 5 6 7 8 9 10 11 12 13 14 15 16 17 18 19 20 21 22 23 24 25 26 27 28 29 30 31 32 33 34 35 36 37 38 39 40 41 42 43 44 45 46 47 48 49 50
000
ASUS43 KIND 301709
RWRIN

WEATHER ROUNDUP FOR INDIANA
NATIONAL WEATHER SERVICE INDIANAPOLIS IN
100 PM EDT THU JUL 30 2015

NOTE: "FAIR" INDICATES FEW OR NO CLOUDS BELOW 12,000 FEET WITH NO
SIGNIFICANT WEATHER AND/OR OBSTRUCTIONS TO VISIBILITY.

* - STATION DOES NOT REPORT WEATHER SUCH AS PRECIPITATION OR FOG.

+ - STATION NOT QUALITY CONTROLLED BY THE NATIONAL WEATHER SERVICE.
    USE DATA WITH CAUTION...ESPECIALLY DEWPOINT AND RELATIVE
    HUMIDITY OBSERVATIONS.

INZ001>003-010>013-019-020-301800-
NORTHWEST INDIANA

CITY           SKY/WX    TMP DP  RH WIND       PRES   REMARKS
GARY /AIRPORT/ SUNNY     84  55  37 W22       30.07S
KNOX *+        SUNNY     81  54  39 NW14G22   30.07S
LA PORTE +     SUNNY     83  56  40 NW9       30.08S
MICHIGAN CITY+ SUNNY     79  54  41 W9G16     30.07S
MONTICELLO +   SUNNY     83  60  45 NW9G22    30.08S
RENSSELAER +   SUNNY     82  59  44 W14G21    30.09S
VALPARAISO     SUNNY     83  53  35 NW12      30.08S

$$

LMZ046-743>745-301800-
SOUTHERN LAKE MICHIGAN

STATION/POSITION TIME  TEMP    WIND        PRES    WAVE
                       AIR SEA DIR/SP/G            HT
                 (UTC) (F)     (DEG/KT/KT) (MB)    (FT)
BURNS HARBOR     1600   75     280/  7/  9 1018.6R
MICHIGAN CITY    1600   73     240/ 10/ 12   N/A
5NW MICH CITY    1700   74 73  270/  8/ 10   N/A     2

$$

INZ004-005-014>016-021>024-301800-
NORTH CENTRAL INDIANA

CITY           SKY/WX    TMP DP  RH WIND       PRES   REMARKS
ELKHART        SUNNY     82  50  32 NW12G20   30.05S
GOSHEN         SUNNY     81  55  40 NW13G24   30.05S
LOGANSPORT +   SUNNY     81  45  28 NW9G17    30.09S
PERU/GRISSOM   SUNNY     83  56  39 NW16      30.07S
ROCHESTER +    SUNNY     82  57  42 NW13      30.08S
SOUTH BEND     SUNNY     82  57  42 NW14      30.06S
WARSAW +       MOSUNNY   81  59  47 W10       30.06S

$$

INZ006>009-017-018-025>027-301800-
NORTHEAST INDIANA

CITY           SKY/WX    TMP DP  RH WIND       PRES   REMARKS
ANGOLA *+      MOSUNNY   81  61  50 NW15      30.04S
AUBURN +       MOSUNNY   82  54  36 W12G17    30.05S
FORT WAYNE     MOSUNNY   82  56  40 W7G18     30.06S
HUNTINGTON +   SUNNY     81  57  44 NW10G21   30.06S

$$

INZ028-029-035-036-043>045-051>053-301800-
WEST CENTRAL INDIANA

CITY           SKY/WX    TMP DP  RH WIND       PRES   REMARKS
CRAWFORDSVL +  SUNNY     78  59  51 W5          N/A
GREENCASTLE +  SUNNY     81  52  36 NW6       30.13S
LAFAYETTE      SUNNY     82  59  45 NW13      30.09S
TERRE HAUTE    SUNNY     84  59  42 N7        30.13S

$$

INZ030>032-037>040-046>048-054>057-064-065-301800-
CENTRAL INDIANA

CITY           SKY/WX    TMP DP  RH WIND       PRES   REMARKS
ANDERSON       SUNNY     81  48  32 NW12      30.10S
COLUMBUS       SUNNY     82  50  32 N6        30.11
FISHERS *+     SUNNY     81  61  50 NW9       30.10S
FRANKFORT +    SUNNY     82  62  50 W3        30.12S
GREENWOOD *+   SUNNY     82  52  34 N8        30.11S
INDIANAPOLIS   MOSUNNY   84  55  36 NW13      30.10S
-EAGLE CREEK   SUNNY     82  58  43 NW13      30.10S
KOKOMO *+      SUNNY     84  57  39 NW14      30.08S
MARION +       SUNNY     80  55  40 NW9G16    30.09S
MT COMFORT *+  SUNNY     82  45  26 N10G17    30.10F
SHELBYVILLE    SUNNY     84  60  44 N8        30.10S
ZIONSVILLE +   SUNNY     81  58  46 NW7       30.11F

$$

INZ033-034-041-042-049-050-058-059-301800-
EAST CENTRAL INDIANA

CITY           SKY/WX    TMP DP  RH WIND       PRES   REMARKS
MUNCIE         SUNNY     80  56  43 N12G23    30.08F

$$

INZ060-061-067>069-081>083-085>088-301800-
SOUTHWEST INDIANA

CITY           SKY/WX    TMP DP  RH WIND       PRES   REMARKS
EVANSVILLE     SUNNY     85  61  44 VRB7      30.14S
HUNTINGBURG *+ SUNNY     84  61  45 N8        30.13S
WASHINGTON +   SUNNY     82  56  40 NW6       30.13S

$$

INZ062-063-066-070>080-084-089>092-301800-
SOUTH CENTRAL AND SOUTHEAST INDIANA

CITY           SKY/WX    TMP DP  RH WIND       PRES   REMARKS
BLOOMINGTON    SUNNY     83  59  44 N7        30.13S
MADISON *+     SUNNY     81  54  39 N5        30.13S
NORTH VERNON + SUNNY     84  54  34 N3        30.12S
SEYMOUR +      SUNNY     84  59  42 NW8       30.10F

$$




USA.gov is the U.S. government's official web portal to all federal, state and local government web resources and services.